Location: Newark
(45.8378°N, 5.5389°E)
Time: 01:53:38
(UTC+00:00)

YUBILEINY - Pass Details

Date: 23 December 2019
Orbit: 1478 x 1509 km, 82.5° (Epoch: 23 January)

Event Time Altitude Azimuth Distance (km) Brightness Sun altitude
Rises 06:34:43 0° 350° (N) 4,611 ? -7.2°
Reaches altitude 10° 06:37:36 10° 352° (N) 3,629 ? -6.7°
Maximum altitude 06:46:21 84° 81° (E) 1,497 ? -5.4°
Drops below altitude 10° 06:55:06 10° 170° (S) 3,627 ? -4.1°
Sets 06:57:58 0° 171° (S) 4,608 ? -3.6°
